Location: Cortos
(40.7190°N, 4.5893°W)
Time: 09:44:44
(UTC+00:00)

Terra - Pass Details

Date: 05 July 2020
Orbit: 701 x 703 km, 98.2° (Epoch: 08 August)

Event Time Altitude Azimuth Distance (km) Brightness Sun altitude
Exits shadow 22:10:29 42° 150° (SSE) 1,003 2.1 -19.5°
Maximum altitude 22:12:04 75° 75° (ENE) 732 1.8 -19.7°
Drops below altitude 10° 22:16:51 10° 351° (N) 2,179 5.4 -20.1°
Sets 22:19:07 0° 349° (N) 3,101 6.4 -20.4°
